Total_Precipitation_Accumulation
0.02 0.02 0.05 0.04 0.03 0.05 0.06 0.04 0.03 0.03 0.03 0.04 0.03 0.04 0.05 0.05 0.04 0.01 0.00 0.00 0.01 0.00 0.00 0.00 0.01 0.03 0.23 0.33 0.52 0.62 0.39 0.08 0.01 0.00 0.01 0.05 0.01 0.00 0.00 0.00 0.00 0.00 0.00 0.00 0.00
0.01 0.03 0.05 0.03 0.04 0.06 0.05 0.03 0.02 0.02 0.03 0.03 0.04 0.06 0.06 0.06 0.03 0.00 0.02 0.08 0.03 0.00 0.00 0.01 0.01 0.05 0.16 0.25 0.53 0.72 0.35 0.04 0.00 0.02 0.02 0.03 0.01 0.01 0.00 0.00 0.00 0.00 0.00 0.00 0.00
0.02 0.04 0.04 0.04 0.06 0.05 0.03 0.03 0.02 0.02 0.02 0.04 0.05 0.06 0.06 0.07 0.02 0.01 0.06 0.03 0.02 0.01 0.01 0.01 0.02 0.10 0.13 0.20 0.31 0.32 0.24 0.05 0.01 0.03 0.08 0.08 0.03 0.00 0.00 0.00 0.00 0.00 0.00 0.00 0.00
0.03 0.05 0.04 0.05 0.06 0.04 0.02 0.02 0.01 0.01 0.03 0.05 0.05 0.04 0.06 0.10 0.01 0.00 0.09 0.04 0.01 0.00 0.01 0.03 0.09 0.12 0.07 0.09 0.10 0.16 0.05 0.09 0.05 0.02 0.05 0.20 0.07 0.02 0.00 0.00 0.00 0.00 0.00 0.00 0.00
0.05 0.04 0.05 0.06 0.04 0.03 0.02 0.01 0.01 0.02 0.04 0.04 0.02 0.04 0.11 0.08 0.02 0.00 0.00 0.00 0.00 0.02 0.02 0.06 0.08 0.07 0.04 0.01 0.08 0.12 0.06 0.10 0.12 0.09 0.09 0.13 0.14 0.02 0.00 0.00 0.00 0.00 0.00 0.00 0.01
0.04 0.03 0.05 0.04 0.02 0.02 0.01 0.01 0.01 0.01 0.01 0.02 0.02 0.07 0.15 0.07 0.00 0.00 0.00 0.00 0.00 0.01 0.10 0.12 0.08 0.08 0.09 0.02 0.06 0.03 0.06 0.12 0.19 0.30 0.26 0.20 0.13 0.10 0.02 0.00 0.00 0.00 0.00 0.00 0.01
0.03 0.04 0.04 0.02 0.02 0.01 0.02 0.01 0.00 0.00 0.00 0.01 0.03 0.13 0.12 0.02 0.00 0.00 0.00 0.00 0.00 0.00 0.04 0.18 0.24 0.24 0.17 0.11 0.04 0.10 0.20 0.26 0.19 0.33 0.42 0.40 0.27 0.10 0.05 0.01 0.00 0.00 0.00 0.00 0.01
0.03 0.04 0.02 0.01 0.02 0.02 0.01 0.01 0.00 0.00 0.00 0.00 0.04 0.17 0.08 0.00 0.00 0.00 0.00 0.00 0.02 0.01 0.03 0.16 0.41 0.35 0.27 0.21 0.10 0.15 0.28 0.24 0.04 0.24 0.48 0.71 0.53 0.06 0.05 0.03 0.00 0.00 0.00 0.01 0.01
0.04 0.03 0.02 0.02 0.02 0.02 0.01 0.00 0.00 0.00 0.00 0.00 0.02 0.11 0.03 0.00 0.00 0.00 0.00 0.00 0.02 0.09 0.11 0.26 0.46 0.42 0.34 0.29 0.28 0.29 0.15 0.05 0.01 0.03 0.23 0.62 0.43 0.07 0.05 0.12 0.04 0.01 0.00 0.01 0.03
0.03 0.02 0.01 0.01 0.02 0.01 0.01 0.00 0.00 0.00 0.00 0.00 0.04 0.11 0.01 0.00 0.00 0.00 0.00 0.00 0.01 0.10 0.30 0.31 0.40 0.51 0.48 0.48 0.31 0.13 0.03 0.02 0.01 0.02 0.12 0.11 0.16 0.09 0.10 0.11 0.15 0.04 0.01 0.02 0.09
0.02 0.02 0.02 0.01 0.01 0.00 0.00 0.00 0.01 0.02 0.00 0.01 0.05 0.11 0.05 0.01 0.02 0.01 0.01 0.01 0.03 0.12 0.11 0.20 0.31 0.41 0.22 0.21 0.07 0.03 0.03 0.02 0.00 0.01 0.10 0.04 0.02 0.10 0.11 0.13 0.20 0.14 0.06 0.04 0.12
0.02 0.02 0.02 0.01 0.00 0.00 0.00 0.01 0.11 0.23 0.12 0.00 0.00 0.00 0.01 0.00 0.03 0.06 0.09 0.11 0.07 0.05 0.11 0.29 0.19 0.01 0.05 0.18 0.24 0.11 0.09 0.04 0.02 0.01 0.09 0.10 0.06 0.04 0.18 0.14 0.21 0.25 0.21 0.08 0.08
0.02 0.02 0.02 0.00 0.00 0.00 0.00 0.03 0.06 0.05 0.06 0.00 0.00 0.00 0.00 0.00 0.00 0.02 0.12 0.25 0.12 0.09 0.10 0.14 0.04 0.03 0.06 0.29 0.45 0.36 0.18 0.04 0.04 0.06 0.10 0.10 0.14 0.16 0.10 0.11 0.15 0.32 0.26 0.28 0.03
0.02 0.02 0.03 0.02 0.00 0.00 0.00 0.02 0.02 0.05 0.03 0.00 0.02 0.03 0.00 0.00 0.00 0.00 0.07 0.31 0.41 0.09 0.11 0.16 0.06 0.12 0.11 0.16 0.34 0.41 0.18 0.16 0.11 0.27 0.33 0.10 0.09 0.02 0.08 0.11 0.10 0.20 0.21 0.61 0.08
0.02 0.01 0.02 0.03 0.01 0.00 0.00 0.00 0.03 0.04 0.03 0.00 0.04 0.03 0.02 0.02 0.01 0.04 0.04 0.32 0.49 0.34 0.15 0.10 0.03 0.22 0.26 0.11 0.16 0.30 0.12 0.14 0.25 0.39 0.44 0.21 0.22 0.00 0.00 0.02 0.07 0.03 0.06 0.33 0.21
0.01 0.00 0.01 0.00 0.00 0.01 0.00 0.00 0.02 0.02 0.01 0.00 0.03 0.02 0.05 0.07 0.02 0.17 0.25 0.37 0.51 0.61 0.37 0.07 0.06 0.12 0.16 0.07 0.09 0.22 0.53 0.36 0.61 0.82 1.15 0.31 0.17 0.05 0.00 0.00 0.00 0.00 0.00 0.06 0.20
0.00 0.00 0.00 0.02 0.01 0.00 0.00 0.00 0.00 0.01 0.00 0.01 0.00 0.00 0.02 0.09 0.03 0.16 0.76 0.70 0.74 0.80 0.67 0.19 0.08 0.02 0.13 0.19 0.35 0.55 0.93 1.56 1.45 1.56 0.94 0.10 0.20 0.07 0.00 0.00 0.00 0.00 0.00 0.00 0.06
0.00 0.00 0.00 0.00 0.00 0.00 0.01 0.00 0.00 0.00 0.01 0.00 0.00 0.00 0.02 0.06 0.13 0.05 0.17 0.33 0.56 0.71 0.77 0.35 0.16 0.04 0.10 0.15 0.32 0.63 0.54 0.95 0.80 0.46 0.19 0.11 0.29 0.00 0.00 0.00 0.00 0.00 0.00 0.00 0.02
0.00 0.00 0.00 0.00 0.00 0.00 0.00 0.00 0.00 0.02 0.01 0.01 0.00 0.01 0.02 0.04 0.28 0.28 0.09 0.19 0.31 0.67 0.82 0.59 0.14 0.02 0.01 0.03 0.13 0.47 0.63 0.23 0.47 0.23 0.10 0.07 0.01 0.00 0.00 0.00 0.00 0.00 0.00 0.00 0.01
0.00 0.00 0.00 0.00 0.01 0.00 0.00 0.00 0.00 0.01 0.01 0.02 0.06 0.07 0.04 0.07 0.21 0.33 0.33 0.46 0.52 0.37 0.59 0.77 0.57 0.06 0.05 0.15 0.16 0.32 0.36 0.42 0.51 0.55 0.22 0.05 0.00 0.00 0.00 0.00 0.00 0.00 0.00 0.00 0.00
0.00 0.00 0.00 0.00 0.00 0.00 0.00 0.00 0.00 0.00 0.00 0.03 0.06 0.09 0.04 0.04 0.12 0.24 0.54 0.45 0.58 0.46 0.29 0.71 0.91 0.54 0.20 0.15 0.13 0.19 0.74 0.39 0.26 0.23 0.17 0.06 0.01 0.00 0.00 0.00 0.00 0.00 0.00 0.00 0.00
0.00 0.00 0.00 0.00 0.00 0.00 0.00 0.01 0.00 0.00 0.00 0.01 0.02 0.07 0.12 0.02 0.07 0.22 0.25 0.41 0.29 0.33 0.50 0.48 0.82 0.79 0.18 0.02 0.02 0.04 0.09 0.19 0.16 0.20 0.03 0.05 0.04 0.00 0.00 0.00 0.00 0.00 0.00 0.00 0.00
0.00 0.00 0.00 0.00 0.00 0.00 0.00 0.00 0.00 0.00 0.00 0.01 0.01 0.08 0.04 0.00 0.06 0.03 0.05 0.05 0.08 0.20 0.67 0.76 0.84 0.82 0.76 0.39 0.09 0.11 0.10 0.14 0.06 0.08 0.08 0.02 0.01 0.00 0.00 0.00 0.00 0.00 0.00 0.00 0.00
0.00 0.00 0.00 0.00 0.00 0.01 0.03 0.00 0.00 0.00 0.00 0.00 0.01 0.01 0.00 0.00 0.01 0.02 0.07 0.04 0.05 0.17 0.49 0.50 0.51 0.43 0.35 0.28 0.08 0.10 0.05 0.12 0.08 0.05 0.05 0.01 0.00 0.00 0.00 0.00 0.00 0.00 0.00 0.00 0.00
0.00 0.00 0.00 0.00 0.00 0.00 0.03 0.02 0.00 0.01 0.00 0.00 0.01 0.01 0.07 0.05 0.01 0.03 0.10 0.06 0.01 0.02 0.22 0.36 0.22 0.26 0.06 0.01 0.02 0.02 0.03 0.06 0.10 0.02 0.02 0.02 0.00 0.00 0.00 0.00 0.00 0.00 0.00 0.00 0.00
0.00 0.00 0.00 0.00 0.00 0.00 0.03 0.01 0.01 0.01 0.02 0.03 0.03 0.00 0.01 0.05 0.22 0.17 0.22 0.15 0.09 0.09 0.27 0.33 0.18 0.15 0.20 0.01 0.05 0.06 0.15 0.13 0.14 0.04 0.01 0.01 0.01 0.00 0.00 0.00 0.00 0.00 0.00 0.00 0.00
0.00 0.00 0.01 0.01 0.01 0.02 0.03 0.01 0.00 0.01 0.03 0.04 0.02 0.03 0.00 0.02 0.04 0.05 0.17 0.11 0.11 0.23 0.15 0.18 0.25 0.16 0.33 0.14 0.21 0.37 0.37 0.15 0.13 0.04 0.01 0.01 0.01 0.00 0.00 0.00 0.00 0.00 0.00 0.00 0.00